Volver al catálogo

IRS P2 R/B

ActivoSSO
NORAD 23324·ROCKET BODY·🇮🇳 India

Lanzado Oct 15, 1994 desde Satish Dhawan Space Centre

Loading…

Próximos Pases (próximas 24 horas)

TLE

ActualizadoSource: Space-Track

Época: Sep 14, 2026, 10:46 UTC

1 23324U 94068B   26257.44920775  .00000022  00000-0  32302-4 0  9999
2 23324  98.8381 331.0122 0057330  19.6808 340.6562 14.17421584650188

Sigue IRS P2 R/B en tiempo real con AllMySat

Download on the App Store